Location: Asheville, NC
(35.6000°N, 82.5500°W)
Time: 15:00:29
(UTC-05:00)

Tiangong 2 - Pass Details

Date: 09 December 2017
Orbit: 384 x 390 km, 42.8° (Epoch: 18 January)

Event Time Altitude Azimuth Distance (km) Brightness Sun altitude
Exits shadow 05:04:43 14° 77° (ENE) 1,174 4.2 -28.4°
Drops below altitude 10° 05:05:23 10° 83° (E) 1,409 4.8 -28.3°
Sets 05:07:35 0° 93° (E) 2,263 6.2 -27.8°
